Cosmos 1400 Rocket - Orbit

View from above orbital plane
View from above orbital plane
View from above satellite
View from above satellite

Ground track
Ground track

The orbit data is extracted from the following two-line orbital elements,

1 13403U 82079B   13168.50397611  .00001487  00000-0  11047-3 0  3189
2 13403 081.1717 137.6069 0038155 040.0106 320.3914 15.01858373677051
Epoch (UTC): 17 June 2013 12:05:43
Eccentricity: 0.0038155
inclination: 81.1717°
perigee height: 534 km
apogee height: 587 km
right ascension of ascending node: 137.6069°
argument of perigee: 40.0106°
revolutions per day: 15.01858373
mean anomaly at epoch: 320.3914°
orbit number at epoch: 67705

The dashed part of the orbit path shows where the satellite is in the earth's shadow,  

Developed and maintained by Chris Peat, Heavens-Above GmbH. Please read the updated FAQ before sending e-mail. Imprint. DLR